Regional Weather Roundup
Issued by NWS Jackson, KY

Home | Current Version | Previous Version | Text Only | Print | Product List | Glossary Off
Versions: 1 2 3 4 5 6 7 8 9 10 11 12 13 14 15 16 17 18 19 20 21 22 23 24 25 26 27 28 29 30 31 32 33 34 35 36 37 38 39 40 41 42 43 44 45 46 47 48 49 50

300
ASUS43 KJKL 192010
RWRJKL

EAST KENTUCKY HOURLY WEATHER ROUNDUP
NATIONAL WEATHER SERVICE JACKSON KY
400 PM EDT TUE SEP 19 2017

NOTE: "FAIR" INDICATES FEW OR NO CLOUDS BELOW 12,000 FEET WITH
NO SIGNIFICANT WEATHER AND/OR OBSTRUCTIONS TO VISIBILITY.

* THESE REPORTS ARE NOT UNDER NWS QUALITY CONTROL AND MAY NOT
  REPORT WEATHER SUCH AS PRECIPITATION AND FOG.

KYZ079-080-083-085-087-088-110-112-115-119-120-192100
...EASTERN KENTUCKY...

CITY           SKY/WX    TMP DP  RH WIND       PRES   REMARKS
JACKSON        CLOUDY    69  67  93 CALM      29.99S
LONDON         MOSUNNY   82  63  52 S5        29.97S
SOMERSET*      PTSUNNY   77  66  69 CALM      29.98F
MONTICELLO*    CLOUDY    77  70  79 W15       29.99F
WILLIAMSBURG*  PTCLDY    79  68  69 W6        29.98S
MIDDLESBORO*   CLOUDY    80  67  63 S5        29.97F
HARLAN APT*    PTCLDY    82  61  47 CALM      29.98F
PIKE CO APT*   CLOUDY    80  63  55 NW10      30.01S
BIG SANDY APT* RAIN      78  64  62 CALM      30.00F
MOREHEAD APT*  CLOUDY    72  68  88 VRB3      30.00R
$$

KYZ035-036-041-042-044-050-067-078-099-192100
...CENTRAL KENTUCKY...

CITY           SKY/WX    TMP DP  RH WIND       PRES   REMARKS
MT STERLING*   MOSUNNY   73  70  88 S5        29.98S
FLEMING/MASON* CLOUDY    73  69  86 SE3       29.97F
DANVILLE*      CLOUDY    79  68  69 S6        29.96F
LEXINGTON      MOSUNNY   77  68  73 VRB5      29.96F
FRANKFORT      CLOUDY    75  66  73 CALM      29.95F
LOUISVILLE     CLOUDY    76  68  76 S6        29.94F
LEBANON*         N/A     77  66  69 SW5       29.95F
GLASGOW*       MOSUNNY   79  66  64 S7        29.95F
BOWLING GREEN  SUNNY     82  72  71 E7        29.93F
$$

KYZ091>093-OHZ055-061-077-WVZ005-015-034-035-042-192100
...SOUTHERN OHIO/WEST VIRGINIA...

CITY           SKY/WX    TMP DP  RH WIND       PRES   REMARKS
COVINGTON      CLOUDY    76  68  76 CALM      29.95F
COLUMBUS       CLOUDY    76  68  76 W8        29.96F
DAYTON         CLOUDY    71  67  87 S7        29.96F
WILMINGTON     CLOUDY    74  70  87 CALM      29.95F
HUNTINGTON     CLOUDY    80  66  62 VRB3      29.97F
CHARLESTON     MOSUNNY   84  63  49 VRB3      29.97F
PINEVILLE*     SUNNY     82  60  47 MISG      30.05F
BECKLEY        CLOUDY    77  57  50 NW8       30.04F
BLUEFIELD      PTSUNNY   75  55  49 NW6       30.06F
LOGAN CO APT*    N/A     81  63  54 CALM      30.00F
$$

VAZ002-007-008-TNZ017-027-036-066-071-192100
...SOUTHWEST VIRGINIA/EAST TENNESSEE...

CITY           SKY/WX    TMP DP  RH WIND       PRES   REMARKS
WISE*          PTSUNNY   77  54  44 W8        30.08S
JONESVILLE*      N/A     84  63  48 CALM      30.01F
ABINGDON*      SUNNY     83  59  42 W7        30.02F
BRISTOL        MOSUNNY   85  59  41 NW7       30.00F
MORRISTOWN*    CLEAR     84  63  48 CALM      29.98F
SEVIERVILLE*   CLEAR     84  59  42 NW7       29.96F
KNOXVILLE      PTSUNNY   85  61  44 VRB3      29.97F
LAFOLLETTE*    CLEAR     77  70  78 SW7       30.01F
OAK RIDGE      CLOUDY    85  63  47 CALM      29.99S
CROSSVILLE     RAIN      67  65  93 SE5       30.01F
NASHVILLE      PTSUNNY   81  71  71 E6        29.95F THUNDER
$$

...KEY TO REMARKS...
VSB - VISIBILITY IN MILES
WCI - WIND CHILL INDEX
HX  - HEAT INDEX

$$




USA.gov is the U.S. government's official web portal to all federal, state and local government web resources and services.